Location: Gairloch Mountain Observatory
(46.1383°N, 60.9640°W)
Time: 23:10:48
(UTC-03:00)

Daily predictions for brighter satellites

Satellite Brightness Start Highest point End
(mag) Time Altitude Azimuth Time Altitude Azimuth Time Altitude Azimuth
Cosmos 2266 Rocket 4.1 21:26:45 10° N 21:33:14 83° E 21:39:34 10° S
SPOT 5 4.1 21:32:24 10° SE 21:36:51 32° ENE 21:41:28 10° N
NOSS 2-3 (C) 3.8 21:32:54 10° SSW 21:37:28 75° SE 21:42:56 10° NE
Iridium 4 Rocket 3.8 21:32:31 10° SSE 21:38:08 62° E 21:43:22 10° N
USA 215 4.5 21:36:54 10° S 21:42:40 32° SW 21:48:28 10° WNW
Lacrosse 5 2.6 21:39:10 10° S 21:43:35 31° SE 21:48:00 10° ENE
Cosmos 921 Rocket 4.3 21:40:05 10° N 21:44:02 30° ENE 21:47:59 10° SE
OE (NEXTSAT) 4.4 21:42:41 10° W 21:46:14 72° SSW 21:49:45 10° ESE
Aureole 1 Rocket 2.7 21:44:38 10° S 21:47:40 47° ESE 21:51:17 10° NNE
Cosmos 1238 Rocket 2.9 21:45:14 10° SSE 21:47:56 33° E 21:50:41 10° NNE
MetOp-B 4.2 21:46:02 10° SSE 21:51:23 83° ENE 21:56:47 10° NNW
Cosmos 1452 Rocket 4.0 21:47:34 10° NNW 21:52:48 62° WSW 21:57:59 10° S
Cosmos 1674 3.9 21:51:13 10° SE 21:54:21 25° E 21:57:32 10° NNE
Cosmos 1943 4.4 21:49:11 10° NW 21:54:23 38° WSW 21:59:33 10° S
Cosmos 1420 Rocket 4.3 21:51:10 10° NNW 21:56:18 65° WSW 22:01:25 10° S
Cosmos 1400 Rocket 3.5 21:53:09 10° SSW 21:57:08 57° WNW 22:01:06 10° N
Cosmos 2278 Rocket 4.1 21:57:42 10° ESE 21:59:14 11° E 22:00:47 10° ENE
COSMOS 2406 4.1 21:55:53 10° NNW 22:01:18 40° NE 22:06:31 11° ESE
Cosmos 1346 Rocket 2.9 22:03:30 10° N 22:07:29 65° ENE 22:11:05 12° SSE
SPOT 1/Viking Rocket 3.8 22:03:16 11° SSE 22:08:02 56° ENE 22:13:04 10° N
H-2A R/B 2.3 22:03:18 10° S 22:08:33 73° WSW 22:13:57 10° NNW
Cosmos 1110 Rocket 4.3 22:09:25 10° NNW 22:14:32 57° ENE 22:18:48 15° SE
ARGOS 3.9 22:11:30 10° S 22:16:46 51° W 22:22:05 10° NNW
DMSP B5D2-2 4.1 22:13:13 10° NNE 22:18:28 63° ESE 22:23:38 10° S
Cosmos 1844 4.2 22:13:53 10° S 22:19:06 39° ESE 22:24:25 10° NE
Meteor 1-24 Rocket 3.9 22:13:12 10° S 22:19:13 82° E 22:25:17 10° NNE
Cosmos 1726 2.7 22:17:41 10° N 22:21:17 43° ENE 22:23:48 18° SE
Cosmos 1269 Rocket 4.0 22:19:08 10° SSW 22:24:25 74° ESE 22:29:44 10° NNE
Meteor 2-5 Rocket 4.3 22:18:51 10° SSW 22:24:45 64° WNW 22:30:39 10° N
Cosmos-2242 3.1 22:20:36 10° N 22:25:00 80° W 22:29:00 12° S
Cosmos 1842 Rocket 4.3 22:21:27 10° N 22:25:32 39° ENE 22:28:25 17° SE
Cosmos 1844 Rocket 2.8 22:20:24 10° S 22:25:56 57° ESE 22:31:28 10° NNE
KORONAS-FOTON 4.2 22:26:14 16° SSE 22:29:05 48° E 22:32:53 10° NNE
USA 238 DEB 3.9 22:22:53 10° NW 22:30:02 76° NE 22:36:05 16° SE
USA 238 3.9 22:23:00 10° NW 22:30:08 76° NE 22:36:11 16° SE
Cosmos 1331 Rocket 4.1 22:25:49 10° NNW 22:31:01 69° ENE 22:34:56 18° SSE
IGS 5A 3.8 22:28:32 18° SE 22:31:27 53° ENE 22:35:31 10° N
Landsat 7 3.8 22:28:24 16° SSE 22:32:11 74° ENE 22:36:58 10° N
Cosmos 1437 3.6 22:30:58 10° NNW 22:34:01 45° W 22:36:33 14° SSW
ATLAS 3B R/B 2.9 22:29:39 10° NW 22:36:18 64° NE 22:41:41 16° SE
Cosmos 1953 Rocket 4.3 22:34:38 10° SSW 22:38:52 51° WNW 22:43:10 10° N
Cosmos 2084 3.4 22:36:19 10° NW 22:40:08 61° SW 22:42:26 22° SSE
Meteor 2-1 Rocket 4.4 22:35:54 10° NNW 22:41:52 87° WSW 22:46:43 16° S
CZ-2C R/B 3.6 22:37:51 18° SE 22:42:11 56° ENE 22:47:51 10° N
Cosmos 2082 Rocket 4.0 22:38:48 10° N 22:43:18 23° NE 22:47:47 10° E
NOSS 3-2 (A) 4.3 22:36:54 10° NW 22:44:16 66° NE 22:51:06 16° SE
Cosmos 494 Rocket 4.0 22:39:12 10° S 22:44:22 65° ESE 22:49:36 10° NNE
Cosmos 1908 3.6 22:45:53 10° NNW 22:49:41 59° W 22:52:26 18° S
ATLAS 5 CENTAUR R/B 3.8 22:51:02 11° E 22:51:02 11° E 22:51:55 10° E
Terra 1.8 22:48:20 21° SSE 22:51:32 76° ENE 22:56:18 10° N
Cosmos 1833 Rocket 4.1 22:48:22 10° N 22:53:11 28° NE 22:57:38 11° ESE
Helios 1A 3.6 22:50:13 16° S 22:53:22 52° W 22:57:29 10° NNW
Cosmos 2251 Rocket 4.0 22:53:18 20° SSE 22:56:34 43° ESE 23:01:35 10° NE
Cosmos 1302 Rocket 4.2 22:51:20 10° NNW 22:56:38 66° ENE 22:59:56 23° SE
Cosmos 1745 Rocket 4.0 22:51:05 10° N 22:57:28 86° E 23:02:06 19° S
ATLAS 2AS CENTAUR R/B 3.1 22:51:43 10° SSW 22:59:36 85° SE 23:07:47 10° NE
Spot 1 4.2 23:03:32 24° S 23:06:06 76° WSW 23:10:40 10° NNW
NOSS 3-2 (C) 4.2 23:00:00 10° NW 23:07:24 67° NE 23:13:50 17° SE
Helios 1B rocket 2.6 23:05:29 10° N 23:09:35 71° WNW 23:12:48 16° SSW
CZ-2C R/B 2.9 23:04:48 10° NNE 23:10:08 50° E 23:13:04 25° SSE
Timation 1 Rocket 4.5 23:07:57 10° SSW 23:13:55 78° WNW 23:19:56 10° NNE
Cosmos 2221 2.6 23:09:59 10° N 23:14:20 67° E 23:16:18 31° SSE
SPOT 5 4.1 23:10:48 13° SSW 23:14:47 37° W 23:19:39 10° NNW
Cosmos 1340 3.4 23:13:16 10° NNW 23:16:56 48° W 23:18:53 24° SSW
Meteor 1-21 Rocket 4.3 23:13:50 18° S 23:18:20 87° ESE 23:24:11 10° NNE
Cosmos 921 Rocket 4.5 23:18:22 10° NW 23:22:17 30° W 23:25:03 16° SSW
Meteor 1-29 3.4 23:19:18 10° N 23:22:40 58° WNW 23:24:34 23° SW
Cosmos 1626 2.6 23:21:55 35° SE 23:22:50 43° E 23:26:25 10° NNE
Cosmos 1300 2.8 23:21:51 10° NNW 23:25:40 72° W 23:27:12 34° S
Cosmos 1455 3.7 23:22:36 10° NNE 23:25:44 24° ENE 23:26:51 21° E
S3M 4.4 23:19:53 11° SSW 23:25:52 63° WNW 23:32:14 10° N
BREEZE-M DEB (TANK) 4.3 23:18:44 10° SSW 23:26:08 33° SSE 23:29:42 10° E
Lacrosse 5 2.4 23:21:18 10° WSW 23:26:19 60° NNW 23:31:20 10° NE
Cosmos 1709 Rocket 4.0 23:24:58 10° N 23:31:16 80° E 23:34:47 27° SSE
Nimbus 7 Rocket 4.5 23:27:44 10° NNE 23:33:46 83° WNW 23:38:27 18° SSW
NOSS 3-4 (A) 3.6 23:32:55 23° S 23:36:37 52° ESE 23:42:50 10° NE
NOSS 3-4 (C) 3.6 23:33:05 23° S 23:36:42 52° ESE 23:42:54 10° NE
NOSS 2-2 (E) 4.1 23:37:07 32° ESE 23:37:13 32° ESE 23:41:08 10° NE
Aureole 3 Rocket 4.3 23:36:45 24° S 23:41:54 71° E 23:47:50 10° NNE
Cosmos 2278 Rocket 2.1 23:38:39 23° SSW 23:42:17 75° ESE 23:47:58 10° NNE
ALOS 2 3.8 23:43:04 23° ESE 23:44:53 32° ENE 23:48:47 10° N
COSMOS 2406 4.2 23:40:20 10° NW 23:45:34 37° WSW 23:48:35 22° SSW
SL-14 R/B 4.0 23:44:16 24° SW 23:46:19 47° WNW 23:50:09 10° N
CENTAUR R/B 3.4 23:39:39 10° NW 23:47:24 63° NE 23:54:17 17° SE
BREEZE-M DEB (TANK) 2.7 23:45:13 10° W 23:49:55 59° NNW 23:52:13 10° ENE
ADEOS Rocket 3.7 23:48:20 10° NNE 23:53:44 37° E 23:56:09 27° SE
